Lid_Strength_Index
5 4 4 3 3 3 4 4 8 3 1 7 7 9 8 7 7 6 7 8 10 12 12 13 13 13 10 6 8 11 9 12 15 13 8 7 10 12 12 16 15 14 17 18
5 4 4 3 3 3 3 5 6 2 2 10 9 8 8 7 7 7 8 9 9 9 12 14 12 11 8 7 8 10 9 13 17 16 12 9 12 10 10 11 13 15 17 18
4 4 4 3 2 2 4 5 8 6 5 6 8 9 9 9 6 7 7 8 8 9 12 11 13 12 8 7 7 8 7 11 13 18 15 11 13 12 10 11 15 14 15 15
4 4 4 3 2 3 3 4 7 7 9 8 8 8 8 9 10 7 7 8 9 10 13 12 13 11 9 7 7 8 9 15 14 13 11 10 12 11 11 12 11 14 14 14
4 5 4 3 3 2 4 9 7 7 7 7 8 8 9 10 9 8 9 9 9 9 12 11 12 11 10 10 8 9 8 14 11 15 12 12 14 11 10 11 11 12 13 14
5 4 4 3 3 2 4 3 4 6 7 8 9 9 9 9 8 7 7 8 9 9 10 8 7 6 7 8 9 10 11 11 13 15 11 12 14 11 12 11 10 11 15 12
4 4 4 4 2 2 2 3 4 7 9 8 9 9 8 8 7 8 6 6 8 7 4 4 5 6 7 7 8 7 11 11 11 15 13 20 12 8 9 11 10 9 10 10
4 4 4 3 2 2 2 2 4 6 8 7 8 8 8 7 5 6 6 6 6 3 6 9 11 10 10 10 8 8 8 9 12 14 15 13 12 10 11 12 13 10 10 9
4 4 3 3 3 2 2 2 2 4 7 8 7 8 7 8 7 7 6 4 3 4 7 10 13 14 12 12 11 7 7 8 11 13 15 19 13 11 7 8 15 10 9 10
3 4 3 3 3 2 2 2 1 4 7 5 5 8 8 6 7 7 6 6 6 5 10 12 13 13 9 14 13 12 12 12 14 14 15 14 11 9 7 15 15 10 10 10
3 3 3 3 2 2 1 2 1 3 5 5 4 4 6 6 6 8 6 7 7 8 11 11 11 12 10 13 10 11 13 15 14 14 16 18 11 9 13 11 10 9 10 10
3 3 3 3 3 2 2 3 1 1 4 4 2 2 2 3 3 5 5 6 7 7 9 9 10 12 10 11 16 8 14 11 13 13 14 11 10 11 10 9 10 10 10 9
3 3 3 3 3 2 2 3 2 3 6 5 4 4 1 0 1 0 6 5 4 5 4 7 8 12 8 12 12 11 9 7 11 11 11 11 10 10 10 9 10 10 10 10
2 2 3 3 3 2 2 3 2 3 5 8 5 1 2 0 1 1 1 3 2 3 4 7 8 10 6 9 9 10 8 8 10 11 10 10 10 10 10 10 9 9 9 10
2 3 3 3 3 2 2 1 2 2 5 8 6 2 1 1 1 2 2 2 3 4 6 7 9 7 7 7 7 10 8 10 11 12 10 10 11 10 9 10 11 11 11 11
2 3 3 3 2 2 2 7 1 1 1 7 9 3 3 2 2 3 3 3 3 4 5 6 6 4 7 10 11 9 9 8 8 10 9 9 9 9 9 10 11 11 11 12
2 3 3 2 2 1 4 5 2 1 1 6 8 7 3 2 3 3 3 3 4 4 5 6 6 6 6 8 11 9 9 9 8 8 8 10 9 10 9 9 10 10 11 12
2 3 3 2 2 2 4 0 1 1 4 5 8 8 7 3 6 7 3 5 5 5 6 5 7 6 6 10 8 8 9 8 9 9 8 9 9 9 10 10 10 11 12 13
2 3 2 2 4 5 3 0 0 0 3 7 8 9 11 3 5 5 5 4 9 4 8 7 6 8 10 8 7 8 8 8 9 9 9 10 11 11 11 11 11 13 14 14
2 2 5 8 5 0 1 3 6 5 5 5 8 5 9 5 6 7 7 6 9 11 8 5 8 9 7 6 6 6 7 8 7 10 11 10 11 12 13 13 13 14 15 15
3 6 7 2 0 3 5 8 8 8 9 7 6 6 8 4 8 9 6 8 8 11 9 9 10 10 9 8 8 8 8 8 8 9 9 10 10 12 13 13 13 14 15 16
3 3 2 3 4 6 9 9 8 8 9 6 7 6 5 5 4 7 7 9 8 12 7 10 12 11 9 9 9 9 9 9 10 10 11 11 12 12 13 14 15 16 17 18
1 4 6 6 7 11 11 12 10 10 7 6 6 8 6 5 5 7 8 10 11 7 11 12 11 10 10 10 10 10 10 10 11 12 12 13 13 13 14 15 15 16 18 18
6 7 10 10 11 9 8 8 8 6 7 6 6 7 7 6 8 9 11 9 8 12 13 12 11 10 10 10 11 12 13 13 13 14 15 16 17 18 18 19 18 19 20 21
7 7 11 9 7 6 7 6 6 5 5 6 7 7 7 9 9 8 9 11 13 11 12 10 11 11 11 12 13 14 14 15 15 15 17 18 18 18 18 18 18 18 20 20
6 7 9 8 8 8 8 8 8 4 5 5 5 8 10 10 9 11 11 12 13 11 11 11 11 12 12 13 13 14 14 14 15 16 17 17 18 17 17 17 18 19 18 19
8 8 6 8 7 8 8 7 6 3 6 9 7 11 11 7 10 11 9 11 10 10 11 10 11 12 12 13 14 15 14 14 15 15 15 16 15 16 17 17 17 17 16 18